Tracking 31027 objects as of 19-Jul-2025
HD Live streaming from Space Station
objects crossing your sky now

STARLINK-2619

Track STARLINK-2619 now!
10-day predictions
STARLINK-2619 is classified as:


NORAD ID: 48475
Int'l Code: 2021-040AZ
Perigee: 464.0 km
Apogee: 467.0 km
Inclination: 53.0 °
Period: 93.8 minutes
Semi major axis: 6836 km
RCS: Unknown
Launch date: May 9, 2021
Source: United States (US)
Launch site: AIR FORCE EASTERN TEST RANGE (AFETR)
Your satellite tracking list
STARLINK-30103
Track 1 satellite(s)




NASA's NSSDC Master Catalog

Two Line Element Set (TLE):
1 48475U 21040AZ  25199.54670661  .00073656  00000-0  20715-2 0  9990
2 48475  53.0357 133.3541 0002214 192.3637 167.7311 15.35851820232880
Source of the keplerian elements: AFSPC